Flag for Germany Weather past 2 weeks in Achim, Lower Saxony, Germany

Now
54 °F

Passing clouds.


Feels Like: 48 °F
Forecast: 43 / 62 °F
Wind: 22 mph from Southwest

Location: Bremen Airport

Current Time: May 7, 2015 at 9:45:42 AM

Latest Report: May 7, 2015 at 9:20 AM


Visibility: N/A

Pressure: 29.92 "Hg

Humidity: 72%

Dew point: 45 °F

Location of AchimLocation

Historic Weather in Achim — Graph

°F

Achim temperature yesterday

Maximum temperature yesterday: 64 °F (at 2:20 PM)
Minimum temperature yesterday: 45 °F (at 3:50 AM)
Average temperature yesterday: 54 °F

Past Weeks' High & Low Weather Summary

 TemperatureHumidityPressure
High75 °F (May 5, 2:50 PM)100% (Apr 24, 1:20 AM)30.30 "Hg (Apr 24, 1:20 AM)
Low30 °F (Apr 28, 4:50 AM)33% (Apr 29, 3:20 PM)29.42 "Hg (May 5, 9:20 AM)
Average51 °F74%29.84 "Hg
* Reported Apr 22 8:20 AM — May 7 8:20 AM, Achim, Weather by CustomWeather, © 2015

Note: Actual official high and low records may vary slightly from our data, if they occured in-between our weather recording intervals... More about our weather records

Advertising

Achim weather history for previous 24 hours

 ConditionsComfort  
Time TempWeatherWind HumidityBarometerVisibility
8:20 AM
Thu, May 7
50 °FScattered clouds.17 mph82%29.92 "HgN/A
7:50 AM50 °FSprinkles. Broken clouds.16 mph76%29.89 "HgN/A
7:20 AM50 °FBroken clouds.17 mph76%29.89 "HgN/A
6:50 AM50 °FPartly sunny.17 mph76%29.86 "HgN/A
6:20 AM50 °FPassing clouds.16 mph71%29.86 "HgN/A
5:50 AM50 °FPassing clouds.16 mph71%29.86 "HgN/A
5:20 AM50 °FClear.17 mph71%29.86 "Hg10 mi
4:50 AM50 °FPartly cloudy.14 mph71%29.83 "HgN/A
4:20 AM50 °FPartly cloudy.14 mph71%29.83 "HgN/A
3:50 AM50 °FPassing clouds.13 mph71%29.83 "HgN/A
3:20 AM50 °FPassing clouds.15 mph76%29.83 "HgN/A
2:50 AM50 °FPassing clouds.15 mph76%29.83 "HgN/A
2:20 AM50 °FClear.13 mph82%29.83 "Hg10 mi
1:50 AM50 °FClear.12 mph76%29.83 "Hg10 mi
1:20 AM50 °FClear.14 mph76%29.83 "Hg10 mi
12:50 AM50 °FClear.13 mph76%29.83 "Hg10 mi
12:20 AM50 °FClear.12 mph76%29.83 "Hg10 mi
11:50 PM
Wed, May 6
50 °FClear.13 mph76%29.83 "Hg10 mi
11:20 PM50 °FClear.12 mph76%29.83 "Hg10 mi
10:50 PM46 °FClear.7 mph87%29.83 "Hg10 mi
10:20 PM48 °FClear.8 mph82%29.83 "Hg10 mi
9:50 PM48 °FSunny.9 mph87%29.83 "Hg10 mi
9:20 PM50 °FSunny.9 mph82%29.83 "Hg10 mi
8:50 PM50 °FPartly sunny.7 mph82%29.83 "HgN/A
8:20 PM52 °FPartly sunny.12 mph77%29.83 "HgN/A
7:50 PM52 °FThunderstorms. Partly sunny.10 mph82%29.83 "HgN/A
7:20 PM54 °FScattered clouds.1 mph72%29.80 "HgN/A
6:50 PM55 °FPartly sunny.8 mph67%29.80 "HgN/A
6:20 PM57 °FPartly sunny.16 mph59%29.80 "HgN/A
5:50 PM59 °FPassing clouds.15 mph63%29.80 "HgN/A
5:20 PM55 °FSprinkles. Broken clouds.22 mph77%29.80 "HgN/A
4:50 PM57 °FBroken clouds.20 mph63%29.80 "HgN/A
4:20 PM63 °FPassing clouds.16 mph42%29.77 "HgN/A
3:50 PM63 °FPassing clouds.18 mph45%29.77 "HgN/A
3:20 PM63 °FPassing clouds.20 mph42%29.80 "HgN/A
2:50 PM63 °FSunny.17 mph42%29.80 "Hg10 mi
2:20 PM64 °FPassing clouds.17 mph46%29.80 "HgN/A
1:50 PM63 °FPassing clouds.20 mph45%29.80 "HgN/A
1:20 PM63 °FPassing clouds.20 mph45%29.80 "HgN/A
12:50 PM63 °FSunny.20 mph45%29.80 "Hg10 mi
12:20 PM61 °FScattered clouds.20 mph52%29.80 "HgN/A
11:50 AM63 °FScattered clouds.16 mph52%29.80 "HgN/A
11:20 AM61 °FScattered clouds.21 mph48%29.80 "HgN/A
10:50 AM59 °FScattered clouds.20 mph55%29.83 "HgN/A
10:20 AM59 °FPassing clouds.16 mph59%29.80 "HgN/A
9:50 AM59 °FPassing clouds.15 mph59%29.80 "HgN/A
9:20 AM57 °FSunny.15 mph63%29.80 "Hg10 mi
Weather by CustomWeather, © 2015

See weather overviewHow to use our weather pages